ATLAS CENTAUR R/B

基本信息
目录编号:
3598
目录名称:
ATLAS CENTAUR R/B
国际标识:
1968-110B
轨道中心:
EARTH
物体状态:
在轨
发射日期:
1968-12-07 UTC
国别:
美国 (US)
轨道信息
数据来源: 国际轨道数据
星历时间: 2026-07-13T18:02:39+0800
半长轴: 7078.778km
偏心率: 0.0045902
轨道倾角: 34.993°
近地点辐角: 143.076°
升交点赤经: 320.773°
平近点角: 217.311°
近地点: 668.147km
远地点: 733.135km
周期: 98.786分钟
每日圈数: 14.576908
详细信息
发射场:
AFETR
轨道高度:
LEO
数据来源:
AOE Integration Group
参考系:
TEME
时间系统:
UTC
历元类型:
SGP4
2D轨道图
3D轨道图
轨道高度分析图
轨道倾角分析图
轨道综合分析图
查看轨道综合分析图